Portada
METAR-TAF:

METAR-TAF

Aeroports :

Sari, Iran

latitud: 36-38-09N, longitud: 53-11-37E, altitud: 11 m

Observació

L'informe es va fer fa 38 minuts, a les 22:00 UTC
Vent 4 kt del Sud-Oest
Temperatura 13°C
Humitat 94%
Pressió 1024 hPa
Visibilitat 10 km o més
Cel ennuvolat a una alçada de 4500 ft

METAR: OINZ 132200Z 22004KT 9999 BKN045 13/12 Q1024

Hora: 02:08 (22:38 UTC)


TAF: manca

Observacions i pronòstics meteorològics de més de 4000 aeroports (METAR i TAF).

Les estacions disponibles són els punts grocs i vermells al mapa.

Posi el ratolí al punt desitjat per veure el nom de l'estació.

Feu clic per veure les observacions i els pronòstics meteorològics.

Per canviar el mapa: feu clic els botons verds amb una creu de color negre per apropar; al botó verd amb un guió per allunyar la imatge; o en les fletxes verdes per a mapes adjacents.


METAR-TAF: